DW8923 Weather Reports


time (UTC)temp
C
wind
direction
speed
KPH
gust
KPH
rain 1hr
cm
rain 24hr
cm
rain mn
cm
humidity
%
barometer
mb
20260504021516 20 163 0.0 0.0 0.00 0.00 0.00 55 1016.2
20260504020015 20 163 0.0 1.6 0.00 0.00 0.00 53 1016.2
20260504014519 21 163 0.0 0.0 0.00 0.00 0.00 51 1015.8
20260504013120 21 163 0.0 4.8 0.00 0.00 0.00 49 1015.7
20260504011515 22 154 0.0 6.4 0.00 0.00 0.00 47 1015.7
20260504010013 22 154 0.0 4.8 0.00 0.00 0.00 46 1015.8
20260504004512 22 138 3.2 11.3 0.00 0.00 0.00 44 1015.7
20260504003012 23 113 6.4 14.5 0.00 0.00 0.00 42 1015.7
20260504001511 23 151 3.2 11.3 0.00 0.00 0.00 43 1015.8
20260504000007 23 183 3.2 14.5 0.00 0.00 0.00 41 1016.2
20260503234507 23 144 1.6 12.9 0.00 0.00 0.00 39 1016.1
20260503233009 24 136 4.8 17.7 0.00 0.00 0.00 38 1016.4
20260503231504 25 183 4.8 16.1 0.00 0.00 0.00 36 1016.4
20260503230002 25 100 4.8 19.3 0.00 0.00 0.00 36 1016.2
20260503224607 25 174 4.8 16.1 0.00 0.00 0.00 35 1016.5
20260503223059 25 198 6.4 19.3 0.00 0.00 0.00 35 1016.6
20260503221604 26 150 6.4 17.7 0.00 0.00 0.00 33 1016.8
20260503220057 25 130 4.8 25.7 0.00 0.00 0.00 36 1016.9
20260503214558 26 155 6.4 19.3 0.00 0.00 0.00 36 1017.2
20260503213051 26 160 4.8 16.1 0.00 0.00 0.00 34 1017.5
20260503211552 26 117 8.0 17.7 0.00 0.00 0.00 34 1017.8
20260503210051 26 136 9.7 19.3 0.00 0.00 0.00 32 1018.2
20260503204547 26 154 6.4 19.3 0.00 0.00 0.00 34 1018.2
20260503203102 26 124 8.0 20.9 0.00 0.00 0.00 30 1018.5
20260503201542 26 188 6.4 20.9 0.00 0.00 0.00 38 1018.9
20260503200041 26 149 8.0 17.7 0.00 0.00 0.00 32 1019.0
20260503194542 26 121 9.7 20.9 0.00 0.00 0.00 34 1019.2
20260503193038 26 227 4.8 20.9 0.00 0.00 0.00 32 1019.4
20260503191540 26 131 6.4 19.3 0.00 0.00 0.00 34 1019.6
20260503190039 26 85 11.3 20.9 0.00 0.00 0.00 35 1019.9
20260503184530 26 155 4.8 16.1 0.00 0.00 0.00 34 1020.1
20260503183028 26 159 8.0 17.7 0.00 0.00 0.00 34 1020.3
20260503181526 26 159 8.0 19.3 0.00 0.00 0.00 37 1020.6
20260503180030 26 132 8.0 20.9 0.00 0.00 0.00 35 1021.0
20260503174523 26 195 1.6 12.9 0.00 0.00 0.00 34 1021.2
20260503173022 25 165 3.2 20.9 0.00 0.00 0.00 39 1021.3
20260503171521 25 130 4.8 11.3 0.00 0.00 0.00 39 1021.6
20260503081505 10 259 0.0 1.6 0.00 0.03 0.00 91 1020.6
20260503071600 10 67 0.0 0.0 0.00 0.03 0.00 90 1020.9
20260503060110 11 67 0.0 0.0 0.00 0.03 0.00 87 1021.0
20260503054600 11 67 0.0 0.0 0.00 0.03 0.00 87 1021.1
20260503053046 12 67 0.0 0.0 0.00 0.03 0.00 86 1021.2
20260503051543 12 67 0.0 0.0 0.00 0.03 0.00 86 1021.2
20260503050042 12 67 0.0 0.0 0.00 0.03 0.00 86 1021.1
20260503044540 12 67 0.0 0.0 0.00 0.03 0.03 85 1021.0
20260503043039 13 67 0.0 0.0 0.00 0.03 0.03 85 1021.1
20260503041539 13 67 0.0 0.0 0.00 0.03 0.03 84 1021.0
20260503040040 13 67 0.0 0.0 0.00 0.03 0.03 84 1020.9
20260503034538 13 67 0.0 0.0 0.00 0.03 0.03 81 1020.9
20260503033037 14 67 0.0 0.0 0.00 0.03 0.03 81 1020.7
20260503031538 15 67 0.0 1.6 0.00 0.03 0.03 79 1020.6
20260503030044 15 67 0.0 0.0 0.00 0.03 0.03 78 1020.6
20260503024536 15 67 0.0 0.0 0.00 0.03 0.03 75 1020.4
20260503023036 16 67 0.0 0.0 0.00 0.03 0.03 73 1020.0